This demonstration page uses our WeatherBlox Daily Observations layout. Learn more.

Left ArrowRight Arrow

Hourly Observations for April 25, 2015

Temp ( °F °C ) Dew Point ( °F °C ) Humidity (%) Winds ( mph kmh ) Pressure ( in mb ) Visibility ( mi km ) Precip ( " mm )
12:05 am 00:05 Cloudy with Thunderstorms 56 13.3 54 12.2 93 93 N 7 11 29.50 999 3 5 0.00 0.00
12:27 am 00:27 Cloudy with Nearby Thunderstorms 56 13.3 55 12.8 97 97 N 5 7 29.50 999 3 4 0.03 0.76
12:36 am 00:36 Cloudy with Strong Thunderstorms 55 13 55 13 100 100 Calm 29.50 999 2 3 0.00 0.00
12:47 am 00:47 Cloudy with Strong Thunderstorms 55 13 55 13 100 100 Calm 29.47 998 1 2 0.37 9.40
12:48 am 00:48 Cloudy with Strong Thunderstorms 55 12.8 55 12.8 100 100 Calm 29.46 998 1 2 0.38 9.65
12:51 am 00:51 Cloudy with Heavy Rain 55 13 55 13 100 100 Calm 29.47 998 1 2 0.00 0.00
1:01 am 01:01 Cloudy with Heavy Rain 55 12.8 55 12.8 100 100 NE 5 7 29.50 999 1 2 0.13 3.30
1:05 am 01:05 Cloudy with Rain 55 12.8 55 12.8 100 100 NNE 5 7 29.50 999 2 3 0.19 4.83
1:12 am 01:12 Cloudy with Strong Thunderstorms 55 13 55 13 100 100 ENE 7 11 29.50 999 2 2 0.00 0.00
1:20 am 01:20 Cloudy with Strong Thunderstorms 55 13 55 13 100 100 NE 6 9 29.50 999 2 2 0.00 0.00
1:29 am 01:29 Cloudy with Heavy Rain 55 12.8 55 12.8 100 100 E 7 11 29.50 999 2 2 0.54 13.72
1:50 am 01:50 Cloudy with Strong Thunderstorms 55 13 55 13 100 100 Calm 29.50 999 2 3 0.00 0.00
1:53 am 01:53 Cloudy with Strong Thunderstorms 55 12.8 55 12.8 100 100 Calm 29.47 998 2 3 0.70 17.78
2:03 am 02:03 Cloudy with Strong Thunderstorms 55 13 55 13 100 100 WSW 9 15 29.47 998 2 3 0.00 0.00
2:11 am 02:11 Cloudy with Thunderstorms 55 12.8 55 12.8 100 100 NW 10 17 29.50 999 3 4 0.09 2.29
2:16 am 02:16 Cloudy with Nearby Thunderstorms 55 12.8 55 12.8 100 100 W 8 13 29.47 998 3 5 0.10 2.54
2:45 am 02:45 Cloudy with Light Rain 54 12.2 54 12.2 100 100 E 3 6 29.47 998 9 14 0.13 3.30
2:53 am 02:53 Cloudy with Nearby Thunderstorms 54 12.2 54 12.2 100 100 NE 3 6 29.47 998 9 14 0.14 3.56
3:04 am 03:04 Cloudy with Nearby Thunderstorms 55 13 55 13 100 100 WNW 7 11 29.47 998 10 16 0.00 0.00
3:13 am 03:13 Cloudy with Light Rain 55 12.8 54 12.2 96 96 NW 7 11 29.47 998 10 16 0.01 0.25
3:21 am 03:21 Cloudy with Light Rain 55 12.8 54 12.2 96 96 WNW 6 9 29.47 998 10 16 0.01 0.25
3:24 am 03:24 Cloudy with Nearby Thunderstorms 55 13 54 12 94 94 WNW 7 11 29.47 998 10 16 0.00 0.00
3:45 am 03:45 Cloudy with Light Rain 55 13 54 12 94 94 W 10 17 29.47 998 10 16 0.00 0.00
3:53 am 03:53 Cloudy with Light Rain 55 12.8 53 11.7 93 93 W 12 19 29.45 997 10 16 0.03 0.76
4:08 am 04:08 Cloudy with Light Rain 54 12.2 53 11.7 97 97 W 13 20 29.47 998 7 11 0.02 0.51
4:53 am 04:53 Cloudy with Rain 55 12.8 51 10.6 87 87 WNW 14 22 29.43 997 7 11 0.10 2.54
5:34 am 05:34 Cloudy with Light Rain 55 13 54 12 94 94 N 15 24 29.50 999 9 14 0.00 0.00
5:53 am 05:53 Cloudy with Light Rain 54 12.2 53 11.7 97 97 N 13 20 29.48 998 5 8 0.05 1.27
6:00 am 06:00 Cloudy with Rain 54 12 54 12 100 100 N 10 17 29.50 999 4 6 0.00 0.00
6:11 am 06:11 Cloudy with Rain 54 12 54 12 100 100 N 14 22 29.50 999 3 5 0.00 0.00
6:16 am 06:16 Cloudy with Light Rain 54 12.2 52 11.1 93 93 N 14 22 29.50 999 5 8 0.03 0.76
6:53 am 06:53 Mostly Cloudy 53 11.7 52 11.1 96 96 NE 12 19 29.48 998 10 16 0.03 0.76
7:08 am 07:08 Mostly Cloudy 54 12 52 11 94 94 NE 15 24 29.50 999 10 16 0.00 0.00
7:53 am 07:53 Cloudy 54 12.2 52 11.1 93 93 N 13 20 29.53 1000 10 16 0.00 0.00
8:53 am 08:53 Cloudy 53 11.7 52 11.1 96 96 N 16 26 29.56 1001 10 16 0.00 0.03
9:53 am 09:53 Cloudy 52 11.1 50 10 93 93 NNE 13 20 29.60 1002 8 13 0.00 0.00
10:10 am 10:10 Cloudy with Mist and Fog 52 11 50 10 94 94 NNE 14 22 29.62 1003 3 4 0.00 0.00
10:20 am 10:20 Cloudy with Mist and Fog 52 11 50 10 94 94 NNE 17 28 29.62 1003 5 8 0.00 0.00
10:23 am 10:23 Cloudy with Mist and Fog 52 11 50 10 94 94 NNE 18 30 29.62 1003 6 10 0.00 0.00
10:30 am 10:30 Cloudy with Mist and Fog 52 11 50 10 94 94 NE 17 28 29.62 1003 3 5 0.00 0.00
10:38 am 10:38 Cloudy with Mist and Fog 51 10.6 50 10 96 96 NNE 16 26 29.62 1003 2 3 0.00 0.00
10:53 am 10:53 Cloudy with Mist and Fog 51 10.6 49 9.4 92 92 NNE 17 28 29.63 1004 3 5 0.00 0.00
11:53 am 11:53 Cloudy 51 10.6 48 8.9 89 89 NNE 14 22 29.66 1005 10 16 0.00 0.00
12:53 pm 12:53 Cloudy with Mist and Fog 50 10 48 8.9 93 93 NNE 12 19 29.67 1005 6 10 0.00 0.00
1:03 pm 13:03 Cloudy with Mist and Fog 50 10 48 9 94 94 N 13 20 29.71 1006 4 6 0.00 0.00
1:53 pm 13:53 Cloudy with Mist and Fog 50 10 47 8.3 89 89 NNE 14 22 29.69 1005 6 10 0.00 0.00
2:04 pm 14:04 Cloudy with Mist and Fog 50 10 48 9 94 94 NNE 12 19 29.71 1006 5 8 0.00 0.00
2:15 pm 14:15 Cloudy with Mist and Fog 50 10 48 8.9 93 93 NNE 13 20 29.71 1006 4 6 0.00 0.00
2:30 pm 14:30 Cloudy with Mist and Fog 50 10 48 9 94 94 NNE 15 24 29.71 1006 3 4 0.00 0.00
2:53 pm 14:53 Cloudy with Mist and Fog 50 10 47 8.3 89 89 NNE 14 22 29.71 1006 3 4 0.00 0.00
3:12 pm 15:12 Cloudy with Mist and Fog 50 10 48 8.9 93 93 NNE 15 24 29.71 1006 4 6 0.00 0.00
3:40 pm 15:40 Cloudy with Mist and Fog 50 10 46 8 88 88 NNE 15 24 29.71 1006 6 10 0.00 0.00
3:53 pm 15:53 Cloudy 50 10 47 8.3 89 89 NNE 14 22 29.72 1007 8 13 0.00 0.00
4:53 pm 16:53 Cloudy with Mist and Fog 50 10 47 8.3 89 89 NNE 12 19 29.74 1007 3 5 0.00 0.00
5:53 pm 17:53 Cloudy with Mist and Fog 50 10 47 8.3 89 89 NE 9 15 29.76 1008 3 5 0.00 0.00
6:53 pm 18:53 Cloudy with Mist and Fog 50 10 47 8.3 89 89 NE 13 20 29.77 1008 3 5 0.00 0.00
7:53 pm 19:53 Cloudy with Mist and Fog 50 10 46 7.8 86 86 NE 15 24 29.78 1009 6 10 0.00 0.00
8:53 pm 20:53 Cloudy with Mist and Fog 49 9.4 45 7.2 86 86 ENE 15 24 29.82 1010 6 10 0.00 0.00
9:53 pm 21:53 Cloudy 48 8.9 45 7.2 89 89 ENE 12 19 29.84 1011 7 11 0.00 0.00
10:53 pm 22:53 Cloudy with Mist and Fog 48 8.9 45 7.2 89 89 ENE 12 19 29.86 1011 5 8 0.00 0.00
11:19 pm 23:19 Cloudy 48 9 45 7 87 87 ENE 13 20 29.85 1011 8 13 0.00 0.00
11:53 pm 23:53 Cloudy 48 8.9 45 7.2 89 89 E 10 17 29.87 1012 8 13 0.00 0.00

Powered by AerisWeather